Regional Weather Roundup
Issued by NWS

Home | Current Version | Previous Version | Graphics & Text | Print | Product List | Glossary Off
Versions: 1 2 3 4 5 6 7 8 9 10 11 12 13 14 15 16 17 18 19 20 21 22 23 24 25 26 27 28 29 30 31 32 33 34 35 36 37 38 39 40 41 42 43 44 45 46 47 48 49 50

000
ASUS43 KFSD 270010
RWRSD

WEATHER ROUNDUP FOR SOUTH DAKOTA
NATIONAL WEATHER SERVICE SIOUX FALLS SD
700 PM CDT SAT MAY 26 2018

NOTE: "FAIR" INDICATES FEW OR NO CLOUDS BELOW 12,000 FEET WITH NO
SIGNIFICANT WEATHER AND/OR OBSTRUCTIONS TO VISIBILITY.


SDZ001>005-009-010-012>017-270100-
NORTHWEST AND NORTH CENTRAL SOUTH DAKOTA

CITY           SKY/WX    TMP DP  RH WIND       PRES   REMARKS
BUFFALO          N/A     87  60  40 E23       29.64F
FAITH            N/A     86  62  44 E17G25    29.71
MOBRIDGE       SUNNY     92  58  31 CALM      29.70S
$$

SDZ012>016-024>037-041>051-057-063-072>074-270100-
SOUTHWEST AND SOUTH CENTRAL SOUTH DAKOTA

CITY           SKY/WX    TMP DP  RH WIND       PRES   REMARKS
RAPID CTY ARPT SUNNY     87  67  51 S8        29.70F
PIERRE         SUNNY     87  64  46 SE12      29.69S
CUSTER         SUNNY     81  42  25 S7        29.89S
ELLSWORTH AFB  SUNNY     87  66  48 S13       29.70F
PHILIP         SUNNY     88  66  48 SE15      29.67F
PINE RIDGE     SUNNY     91  50  24 S17       29.72F
SPEARFISH      LGT RAIN  84  68  58 NE9       29.73F
WINNER         FAIR      88  66  48 SE10      29.73S
$$

SDZ004>011-016>023-039-040-270100-
NORTHEAST SOUTH DAKOTA

CITY           SKY/WX    TMP DP  RH WIND       PRES   REMARKS
ABERDEEN       SUNNY     95  50  21 N5        29.71S
WATERTOWN      SUNNY     89  54  30 CALM      29.75S
BROOKINGS      SUNNY     90  53  28 CALM      29.76S
SISSETON         N/A     93  48  21 SW6       29.69S
$$

SDZ017-020-022-023-036>040-048>070-270100-
SOUTHEAST SOUTH DAKOTA

CITY           SKY/WX    TMP DP  RH WIND       PRES   REMARKS
SIOUX FALLS    SUNNY     88  62  41 SW5       29.74S
HURON          SUNNY     91  62  37 W3        29.71S
CHAMBERLAIN    SUNNY     92  63  37 SE10      29.73S
MITCHELL       SUNNY     90  65  43 SE5       29.72S
YANKTON        SUNNY     94  57  28 CALM      29.73F
$$

ABBREVIATIONS USED IN REMARKS
   TC - TEMPERATURE IN CELSIUS
  WCI - WIND CHILL INDEX
   HX - HEAT INDEX
  VSB - VISIBILITY





USA.gov is the U.S. government's official web portal to all federal, state and local government web resources and services.